Location: Christianberg
(48.9086°N, 14.0209°E)
Time: 04:15:43
(UTC+00:00)

FENGYUN 1C DEB - Pass Details

Date: 01 February 2022
Orbit: 832 x 1169 km, 98.6° (Epoch: 26 May)

Event Time Altitude Azimuth Distance (km) Brightness Sun altitude
Rises 18:44:12 0° 2° (N) 3,521 ? -26.9°
Reaches altitude 10° 18:47:49 10° 338° (NNW) 2,637 ? -27.4°
Maximum altitude 18:50:35 14° 309° (NW) 2,415 ? -27.9°
Drops below altitude 10° 18:53:28 10° 281° (W) 2,736 ? -28.4°
Sets 18:57:22 0° 257° (WSW) 3,757 ? -29.0°
